User: anonymous   Login
Location: Caltech
(34.1382°N, 118.1253°W)
Time: 19:58:43
(UTC-08:00)
Language:

BREEZE M DEB (TANK) - Orbit

View from above orbital plane
View from above orbital plane
View from above satellite
View from above satellite

Ground track
Ground track

The orbit data is extracted from the following two-line orbital elements,

1 33437U 08057B   17328.48018902 +.00001218 +00000-0 +36203-3 0  9992
2 33437 049.5668 108.4365 4980455 192.5892 148.0684 05.60683751182832
Epoch (UTC): 24 November 2017 11:31:28
Eccentricity: 0.4980455
inclination: 49.5668°
perigee height: 340 km
apogee height: 13672 km
right ascension of ascending node: 108.4365°
argument of perigee: 192.5892°
revolutions per day: 5.60683751
mean anomaly at epoch: 148.0684°
orbit number at epoch: 18283

The dashed part of the orbit path shows where the satellite is in the earth's shadow,  

DLR